Lapse_Rate
7.3 6.8 6.6 6.5 6.5 6.5 6.1 6.2 6.5 6.5 6.3 6.2 6.0 6.0 6.2 6.3 6.5 6.5 6.4 6.3 6.6 6.4 6.2 6.4 6.4 6.3 6.2 6.2 6.3 6.1 6.1 6.0 6.1 5.8 6.0 5.5 5.4 5.2 5.2 5.3 5.2 5.2 5.3
6.5 6.7 6.7 6.6 6.4 6.7 6.5 6.1 6.4 6.6 6.5 6.5 6.4 6.3 6.3 6.4 6.4 6.4 6.4 6.6 6.4 6.5 6.4 6.5 6.5 6.4 6.5 6.6 6.6 6.5 6.4 6.4 6.3 6.3 6.1 6.2 5.6 5.4 5.3 5.4 5.6 5.2 5.4
6.9 7.2 7.1 6.9 6.6 6.6 6.4 6.3 6.5 6.7 6.3 6.3 6.6 6.6 6.5 6.5 6.4 6.4 6.5 6.6 6.6 6.4 6.5 6.2 6.5 6.4 6.5 6.5 6.6 6.6 6.7 6.8 6.8 6.8 6.5 6.1 6.1 5.8 5.7 5.8 5.8 5.6 5.3
7.2 7.1 7.4 7.3 6.9 6.7 6.5 6.5 6.3 6.6 6.6 6.4 6.5 6.7 6.7 6.6 6.7 6.6 6.6 6.6 6.6 6.5 6.5 6.7 6.6 6.4 6.5 6.6 6.7 6.6 6.7 6.8 6.8 6.9 6.9 6.6 6.1 6.1 6.3 6.5 6.3 6.4 5.9
7.2 7.7 7.6 7.1 7.1 6.8 6.7 6.6 6.6 6.6 6.7 6.7 6.7 6.6 6.9 7.0 6.8 6.9 6.7 6.7 6.7 6.7 7.0 7.1 7.0 7.0 7.0 7.0 7.0 7.0 7.1 6.9 6.6 6.4 6.5 6.6 6.5 6.3 6.2 6.3 6.2 6.2 6.1
7.9 7.7 7.6 7.6 7.6 7.6 7.0 6.5 6.7 6.8 6.9 6.8 6.8 6.7 6.7 6.6 6.8 6.9 7.1 7.2 7.3 7.5 7.5 7.6 7.4 7.2 7.1 7.1 6.9 7.1 7.2 7.0 6.7 6.6 6.4 6.3 6.2 6.2 6.3 6.3 6.3 6.3 6.2
8.3 8.0 7.9 7.9 7.7 7.6 7.6 7.3 7.1 6.9 7.0 7.1 6.8 6.8 6.8 6.8 6.8 7.2 7.4 7.6 7.6 7.7 7.8 7.7 7.5 7.4 7.2 7.2 7.1 7.0 6.9 6.9 6.8 6.8 6.5 6.3 6.2 6.2 6.2 6.1 6.1 6.0 6.0
8.4 8.4 8.3 8.2 8.2 8.4 8.6 7.6 7.1 7.1 7.1 7.1 7.4 7.2 7.3 7.3 7.6 7.5 7.4 7.5 7.6 7.5 7.6 7.6 7.6 7.4 7.3 7.2 7.3 7.2 7.1 6.9 6.6 6.5 6.4 6.3 6.2 6.2 6.2 6.0 5.9 5.9 5.7
7.7 7.9 8.2 8.3 8.2 8.2 8.0 8.2 8.0 7.9 7.6 7.3 7.5 7.5 7.4 7.8 7.5 7.4 7.4 7.5 7.5 7.4 7.2 7.2 7.4 7.1 7.0 6.9 6.8 6.8 6.9 6.9 6.7 6.5 6.5 6.5 6.2 6.1 6.1 6.0 5.7 5.8 5.8
7.7 7.6 7.7 7.7 7.7 7.7 7.7 7.8 7.8 7.9 8.2 8.2 8.0 7.9 7.7 7.7 7.1 6.9 7.0 6.8 6.9 7.0 7.2 7.4 7.3 7.1 6.9 7.0 7.1 6.8 6.5 6.2 6.6 6.7 6.3 6.1 6.3 6.0 5.9 5.8 5.7 5.7 5.5
7.6 7.6 7.7 7.9 8.3 8.2 8.1 7.9 8.1 8.1 8.1 8.4 8.2 8.4 8.2 7.6 7.7 7.3 7.4 7.7 7.6 7.5 7.4 7.4 7.4 7.3 6.9 6.9 6.8 6.5 6.7 6.1 6.3 6.4 6.5 6.3 5.9 5.8 5.7 5.7 5.6 5.5 5.5
7.5 7.7 8.0 8.0 8.0 8.2 8.1 8.1 7.9 7.8 7.9 7.9 8.2 8.5 8.5 7.9 7.7 7.9 8.0 7.6 7.0 6.9 7.1 7.1 6.8 6.8 6.9 6.5 6.4 6.5 6.5 6.7 6.1 6.1 6.2 6.1 6.1 6.2 6.0 5.8 5.5 5.5 5.5
7.5 7.6 7.6 7.7 7.8 8.0 7.8 7.8 7.6 7.4 7.5 7.5 7.7 8.2 8.1 8.4 7.9 7.8 7.5 7.2 7.0 6.2 6.3 6.4 6.6 6.3 6.4 6.3 6.0 6.1 6.0 6.1 6.0 6.0 6.2 6.2 6.3 6.2 6.0 6.0 6.2 6.3 6.1
7.2 7.1 7.0 7.1 7.1 7.1 7.2 7.4 7.7 7.4 7.1 7.1 7.2 7.6 7.9 8.2 8.2 7.7 7.5 7.0 5.7 6.2 6.0 6.0 5.5 5.4 6.0 6.5 6.6 5.9 5.6 5.8 6.0 5.6 5.8 6.0 6.2 6.3 6.1 5.9 6.0 5.9 5.9
7.0 6.8 6.6 6.6 6.7 6.5 6.5 6.6 6.7 7.0 7.0 7.0 7.0 7.1 7.4 7.7 8.0 7.8 7.8 7.6 6.9 7.1 6.7 6.2 4.8 4.5 5.8 5.5 5.8 5.4 5.4 5.8 5.6 5.6 5.7 5.8 6.2 6.3 5.9 5.9 5.8 5.5 5.7
6.8 6.8 6.7 6.5 6.2 6.0 6.2 6.4 6.4 6.6 6.8 6.9 7.1 7.1 7.3 7.6 7.4 7.4 7.6 7.3 7.2 7.4 7.1 6.8 5.9 5.5 5.3 5.5 5.6 5.7 5.4 5.4 5.5 5.3 5.5 6.1 6.3 6.2 6.0 6.1 6.0 5.7 5.9
6.5 6.5 6.5 6.5 6.1 6.1 5.9 6.4 6.6 6.6 6.7 6.8 7.1 7.2 7.3 7.3 7.2 7.2 7.4 7.1 7.4 7.8 6.8 6.8 5.9 5.3 5.1 5.3 5.3 5.6 5.7 5.4 5.4 5.5 5.9 6.4 6.3 6.2 6.3 6.2 6.1 6.1 6.0
6.2 6.2 6.2 6.3 6.2 6.3 6.0 5.9 6.1 6.4 6.8 6.7 6.9 7.1 7.1 7.1 7.0 7.1 7.5 7.0 7.4 7.1 6.6 6.5 5.4 5.3 5.0 5.0 5.2 5.5 5.9 5.9 5.9 6.1 6.2 6.1 6.2 6.2 6.1 6.0 5.9 5.7 5.6
6.2 6.4 6.5 6.4 6.3 6.4 6.0 5.7 5.6 5.9 6.3 6.8 6.9 7.0 7.0 6.9 6.9 6.8 7.2 7.2 7.0 6.9 6.4 5.9 5.8 5.5 5.4 5.4 5.8 5.9 6.0 6.2 6.3 6.4 6.4 6.2 5.9 5.8 5.6 5.6 5.5 5.5 5.4
6.4 6.6 6.5 6.5 6.3 6.2 6.1 5.8 5.9 5.9 6.1 6.8 6.9 7.0 7.0 6.9 6.8 6.8 7.0 7.1 6.8 6.3 5.9 5.9 5.8 5.7 6.0 6.4 6.4 6.5 6.6 6.5 6.5 6.3 6.1 5.9 5.9 5.8 5.8 5.7 5.7 5.6 5.5
6.4 6.5 6.4 6.4 6.2 6.2 6.1 6.0 6.0 6.1 6.2 6.8 6.8 7.0 7.0 6.9 6.9 6.9 6.9 6.8 6.6 6.2 6.1 5.9 5.7 5.8 6.3 6.4 6.6 6.7 6.4 6.0 5.8 5.7 5.5 5.7 5.7 5.6 5.6 5.7 5.8 5.6 5.6
6.5 6.4 6.4 6.2 6.1 6.1 6.2 6.3 6.2 6.1 6.2 6.7 6.9 6.9 7.1 6.9 6.9 6.7 6.6 6.5 6.3 6.3 6.0 5.7 6.0 6.3 6.4 6.1 6.3 6.1 5.9 5.6 5.6 5.6 5.6 5.7 5.8 5.8 5.9 5.8 5.8 5.6 5.5
6.0 6.0 6.1 6.1 5.9 6.1 6.1 6.1 6.4 6.3 6.4 6.7 6.8 7.1 6.9 6.8 7.1 6.7 6.6 6.3 6.1 6.1 6.2 6.1 6.1 6.2 6.1 6.1 6.1 5.9 5.8 5.8 5.7 5.6 5.7 5.7 5.7 5.8 5.6 5.4 5.2 5.2 5.3
5.4 5.7 5.6 5.7 5.9 6.1 6.2 6.2 6.5 6.4 6.5 6.6 6.6 6.5 6.8 6.7 6.6 6.2 6.5 6.2 5.9 5.9 6.0 6.0 6.0 6.0 5.9 5.8 5.7 5.7 5.6 5.6 5.7 5.8 5.8 5.8 5.6 5.3 5.3 5.3 5.3 5.3 5.2
4.5 5.0 5.3 5.5 5.6 6.0 6.1 6.3 6.5 6.6 6.3 6.1 6.2 6.4 6.6 6.4 6.3 6.1 6.3 5.7 5.9 6.0 5.9 5.7 5.7 5.8 5.8 5.8 5.7 5.6 5.7 5.9 5.9 5.8 5.7 5.4 5.2 5.2 5.3 5.3 5.1 5.1 5.0
5.0 4.5 4.7 5.2 5.2 5.4 5.7 5.8 5.9 5.8 5.5 5.6 5.8 6.3 6.3 6.3 6.4 6.5 6.2 5.9 6.1 6.0 5.7 5.7 5.9 5.7 5.7 5.7 5.8 5.8 5.8 5.6 5.5 5.5 5.5 5.5 5.4 5.4 5.2 5.0 4.8 4.8 4.8
Wind_Speed
4 8 13 13 12 9 8 9 9 7 8 9 8 8 8 8 8 7 9 8 10 10 8 8 8 7 5 5 5 5 5 5 4 2 3 2 2 4 6 11 13 13 13
12 16 7 6 7 9 11 11 7 10 8 10 9 9 9 8 7 8 9 8 9 9 9 8 7 4 7 5 5 7 6 6 5 6 3 4 6 5 3 5 8 11 12
17 17 13 9 9 11 11 8 9 10 9 9 9 11 10 10 8 8 9 8 9 8 6 7 7 6 6 5 6 6 5 5 6 4 2 2 3 2 3 2 4 8 11
9 13 14 11 9 9 9 8 10 9 8 9 10 11 10 10 11 10 9 9 8 7 7 8 6 7 8 6 5 7 5 5 4 4 3 4 2 1 0 3 3 4 5
10 9 9 7 8 7 7 9 9 10 10 10 9 9 9 9 8 10 9 9 8 8 8 8 7 9 12 9 5 7 7 5 3 4 4 3 3 3 4 2 3 1 3
7 8 7 5 7 8 7 7 8 9 9 7 10 10 10 8 12 15 12 10 10 10 9 9 8 9 9 10 11 9 10 8 8 5 4 4 5 3 2 3 2 1 2
7 4 5 3 3 5 6 5 7 8 6 9 9 9 11 10 13 16 18 10 9 10 9 8 7 7 9 8 10 9 9 11 7 7 7 7 5 5 2 2 3 3 3
5 6 4 2 3 3 6 2 4 6 8 8 9 9 10 11 16 16 15 10 8 9 9 8 8 8 8 9 8 8 9 8 10 8 9 8 7 5 7 2 2 3 3
2 4 4 5 6 7 7 5 3 4 7 9 8 10 12 14 13 16 11 8 8 8 6 6 7 7 8 10 7 7 7 8 10 17 17 15 13 14 10 3 4 3 3
4 1 1 2 2 1 3 4 4 6 6 7 10 11 14 14 8 14 12 5 7 5 5 6 9 7 9 9 8 7 7 8 6 5 5 7 12 10 10 8 5 5 4
6 5 3 2 4 2 3 2 3 6 7 8 9 10 10 7 1 9 14 5 1 3 4 3 4 10 9 9 10 6 7 4 4 3 3 4 3 4 4 7 9 7 6
7 6 5 5 3 1 4 4 4 5 7 8 8 1 3 5 10 14 17 15 13 7 8 6 3 9 8 9 8 10 7 4 3 3 3 3 3 3 3 4 8 10 11
6 6 7 7 5 5 4 4 4 4 5 8 4 5 5 5 6 15 12 14 16 5 5 5 12 7 4 4 4 8 7 4 4 4 3 2 2 2 3 2 2 5 7
9 7 4 3 2 1 2 2 5 5 5 5 3 5 7 8 8 7 7 9 1 12 17 5 3 9 3 5 4 4 4 3 3 2 2 1 1 1 1 0 1 1 1
8 6 5 4 4 3 3 4 6 7 7 6 6 7 9 9 11 13 7 9 11 11 11 7 6 5 4 2 2 4 3 4 2 1 3 2 2 2 2 2 2 1 0
11 8 6 5 4 4 3 5 10 13 11 11 14 11 9 12 4 9 7 7 6 14 6 5 3 3 3 5 5 4 2 5 4 4 4 3 3 3 2 1 1 1 2
13 13 7 5 4 4 3 4 6 5 12 9 11 16 13 6 3 6 8 10 13 10 3 4 4 5 5 6 6 5 7 6 6 4 5 4 3 4 3 2 2 1 1
14 16 9 6 6 5 5 6 6 8 8 5 4 3 7 8 11 14 14 11 3 3 3 5 5 6 6 7 7 7 7 7 6 5 6 5 5 4 3 4 4 3 4
12 10 10 6 5 6 5 6 6 7 8 7 2 2 1 11 10 12 7 6 6 5 6 6 7 8 8 8 8 7 8 6 5 5 5 5 3 4 4 3 3 5 3
12 14 9 7 5 6 6 6 7 7 8 7 4 4 4 3 6 4 4 6 7 6 7 8 7 7 8 8 8 7 7 6 5 6 5 4 4 4 4 3 4 4 4
6 6 10 6 6 7 7 8 9 7 7 5 5 6 9 6 7 6 7 7 8 6 7 8 7 8 7 7 7 8 8 6 5 5 5 4 3 3 3 4 4 3 3
7 7 7 8 7 8 9 8 8 9 6 6 5 6 9 6 8 8 8 8 8 8 7 8 8 7 7 6 7 8 7 6 6 5 5 4 3 3 4 3 3 4 3
9 10 9 9 9 10 9 10 9 10 7 7 8 7 7 8 9 9 10 10 9 9 8 9 9 7 9 9 9 8 7 6 5 4 5 4 4 4 4 3 3 3 3
12 12 13 11 10 11 11 10 11 10 10 9 9 8 9 10 11 12 11 10 10 10 9 9 9 9 11 12 11 11 9 8 7 7 7 5 4 4 4 4 4 5 4
16 15 14 13 11 12 10 11 11 11 11 11 10 10 12 12 13 12 11 10 10 10 11 12 14 16 15 14 13 12 12 11 8 7 6 7 6 6 5 5 3 3 4
20 19 16 13 12 11 10 10 11 12 12 12 12 13 13 12 13 13 11 11 10 10 10 12 15 17 16 15 14 15 14 11 9 9 8 6 4 4 4 3 3 3 3
Wind_Direction
304 220 205 209 201 198 210 223 213 203 201 210 211 220 228 229 226 211 222 227 226 239 227 214 236 214 223 217 213 209 212 204 234 233 233 243 236 220 212 213 225 233 235
240 238 208 208 203 199 209 221 210 213 203 210 207 218 228 230 224 216 231 236 236 233 225 206 236 213 233 214 204 207 210 199 210 244 209 236 222 236 213 210 212 217 215
204 218 232 209 198 213 221 211 211 213 213 215 206 215 222 230 226 221 225 233 228 229 224 218 230 206 225 212 203 209 219 218 222 234 226 227 237 196 193 204 226 235 238
215 211 213 219 217 219 220 213 216 216 208 220 220 222 219 217 219 225 225 231 231 231 225 223 216 216 220 204 194 213 200 217 219 229 237 257 263 302 320 232 238 215 238
222 206 195 191 205 212 211 212 216 218 213 219 225 227 228 213 220 216 211 225 224 232 231 226 219 215 205 193 180 201 194 206 201 243 254 249 237 219 228 206 239 220 244
146 148 159 176 202 201 210 213 213 221 223 212 223 223 225 221 215 200 201 213 217 221 225 222 220 201 219 210 198 182 190 195 204 198 216 237 259 262 227 220 229 231 284
103 127 136 187 261 215 193 202 224 236 222 229 234 219 228 229 214 212 206 215 220 220 222 217 209 213 197 199 210 210 213 207 197 195 219 229 248 218 231 247 246 238 239
68 94 93 63 120 26 49 5 266 246 238 239 230 223 226 230 217 216 214 219 228 229 223 210 198 199 202 195 204 205 214 215 225 229 230 237 226 229 215 234 248 250 280
63 74 37 43 24 18 5 336 329 268 256 250 234 225 222 240 208 209 195 205 230 247 236 217 211 202 200 193 203 219 225 231 225 231 238 245 240 225 209 185 245 245 275
187 149 341 70 100 32 299 303 307 299 277 250 247 236 229 238 205 211 190 197 220 218 207 202 187 197 188 179 203 208 235 248 225 227 237 248 249 257 213 218 225 230 228
180 181 217 317 320 286 284 257 278 292 295 290 256 245 244 235 174 142 147 134 30 252 216 188 193 186 184 191 209 209 213 224 245 236 247 261 257 239 221 216 223 213 218
181 188 191 199 205 271 273 285 285 283 282 276 258 161 89 104 113 106 101 93 68 31 4 332 291 174 204 218 208 233 196 185 211 228 239 256 276 277 246 232 230 229 231
203 199 203 208 196 193 212 243 274 285 285 289 245 161 144 127 136 141 114 93 96 54 322 293 295 287 161 149 251 274 212 212 215 208 224 229 220 244 278 267 230 219 230
223 219 222 236 247 258 229 265 280 282 282 279 224 187 177 177 190 208 168 101 270 208 205 172 167 245 148 99 112 240 238 208 196 221 209 153 183 140 229 172 223 304 294
253 244 233 226 222 237 217 251 258 254 248 264 243 209 192 201 207 212 253 188 224 213 177 151 177 216 174 117 125 208 214 165 134 123 97 102 66 38 29 8 30 322 341
250 253 230 210 210 211 200 267 229 243 253 257 259 249 239 244 243 262 225 162 112 117 138 173 190 182 149 174 178 166 128 114 120 112 97 93 90 97 85 72 101 118 106
248 245 231 199 202 212 207 234 275 257 231 247 263 251 218 278 296 144 113 110 125 146 150 136 187 155 140 148 147 148 131 112 92 92 99 81 92 86 72 51 63 66 71
244 235 217 195 202 199 205 233 243 265 276 266 58 346 132 122 127 148 146 120 131 83 107 140 161 133 129 128 132 131 120 110 101 98 81 70 71 75 66 40 23 27 30
233 224 212 199 200 206 205 216 236 250 259 261 177 52 49 127 140 152 177 144 146 125 124 121 133 128 128 127 118 105 101 94 105 100 90 98 88 98 87 75 83 64 71
220 209 194 187 197 207 218 226 233 230 250 239 200 183 161 140 155 151 139 130 129 128 132 124 116 105 109 114 112 108 102 95 93 97 97 86 70 61 70 69 58 62 50
209 206 207 205 198 208 218 226 240 233 229 216 192 171 189 167 147 142 131 133 124 135 119 109 102 100 98 103 105 110 107 106 96 88 81 76 78 101 99 87 82 70 41
222 216 202 211 213 211 219 222 226 227 212 192 155 168 186 140 129 118 108 98 93 93 98 104 95 93 96 112 117 111 108 106 98 97 96 95 107 102 88 76 67 57 40
231 228 224 217 212 213 217 219 213 215 180 164 153 150 148 123 118 116 109 106 104 101 97 96 99 96 99 97 89 93 105 101 97 105 108 103 95 84 76 72 61 62 45
236 221 222 219 219 214 213 210 205 189 166 159 151 136 128 119 115 111 107 103 99 97 98 99 101 106 98 90 88 91 104 120 112 104 111 107 103 100 89 74 54 45 31
232 218 212 213 213 206 204 206 183 165 161 150 137 127 118 118 114 108 103 105 109 107 103 106 108 110 111 111 108 105 109 105 104 114 106 100 90 85 72 63 54 49 31
221 211 203 200 199 193 198 185 160 156 152 134 124 123 123 123 116 113 121 122 117 106 110 116 119 120 114 105 106 109 105 102 98 97 89 87 90 78 76 75 58 26 18